[ ตารางข้อมูล ] [ Min-Max ] [ วันนี้2 ] [ วันนี้4 ] [ เทียบ-A 3วัน ] [ เทียบ-B 4วัน ]   

วันนี้2   [ ◀ ช่วงเก่ากว่า ] [ ช่วงที่ 31 ] [ ช่วงใหม่กว่า ▶ ] [ ล่าสุด ]    [ 3 ชั่วโมง ] [ 6 ชั่วโมง ] [ 12 ชั่วโมง ] [ 24 ชั่วโมง ]   วันนี้2

อุณภูมิในตู้ Knockdown4529  ราย 6 ชั่วโมง  ที่วัดได้ ในช่วงวันเวลา 24/08/2026 (15:00) ถึง 24/08/2026 (21:00) 
ความชื้นในตู้ Knockdown4529  ราย 6 ชั่วโมง  ที่วัดได้ ในช่วงวันเวลา 24/08/2026 (15:00) ถึง 24/08/2026 (21:00) 
การใช้ไฟฟ้าในตู้ Knockdown4529  ราย 6 ชั่วโมง  ที่วัดได้ ในช่วงวันเวลา 24/08/2026 (15:00) ถึง 24/08/2026 (21:00) 

  DS18B20SHTC3PZEM-004TWiFi 
IDDate d/m/Y & Timedata1
สูง
data2
ต่ำ
data3
นอก
temp
pcb
hum
pcb
VoltAmpWattrssiTime
 15670  24/08/2026 20:55:40  31.5  31.5  29.5  32.6  65.8  229.5  0.04  4.5  -80  20:55 
 15669  24/08/2026 20:50:57  31.5  31.6  29.8  32.4  65.7  229.2  0.04  4.5  -81  20:50 
 15668  24/08/2026 20:46:13  31.6  31.6  29.8  32.6  65.7  228.7  0.04  4.5  -81  20:46 
 15667  24/08/2026 20:41:30  31.6  31.6  29.9  32.6  65.8  228.1  0.04  4.5  -82  20:41 
 15666  24/08/2026 20:36:45  31.6  31.6  29.7  32.6  65.6  229.6  0.04  4.5  -80  20:36 
 15665  24/08/2026 20:32:01  31.6  31.6  29.7  32.6  65.6  229.9  0.04  4.5  -81  20:32 
 15664  24/08/2026 20:27:19  31.6  31.6  29.9  32.6  65.6  229.6  0.04  4.5  -81  20:27 
 15663  24/08/2026 20:22:30  31.6  31.7  29.9  32.6  65.6  229.4  0.04  4.5  -80  20:22 
 15662  24/08/2026 20:17:45  31.6  31.7  30.0  32.6  65.7  230.0  0.04  4.5  -79  20:17 
 15661  24/08/2026 20:13:02  31.6  31.8  30.0  32.6  65.5  229.6  0.04  4.5  -79  20:13 
 15660  24/08/2026 20:08:18  31.6  31.8  30.0  32.7  65.6  229.6  0.04  4.5  -81  20:08 
 15659  24/08/2026 20:03:35  31.6  31.8  30.0  32.7  65.5  229.9  0.04  4.5  -79  20:03 
 15658  24/08/2026 19:58:51  31.7  31.8  30.1  32.7  65.6  230.7  0.04  4.5  -81  19:58 
 15657  24/08/2026 19:54:08  31.7  31.8  30.2  32.5  65.7  230.8  0.04  4.6  -79  19:54 
 15656  24/08/2026 19:49:24  31.7  31.9  30.1  32.6  65.7  231.0  0.04  4.6  -78  19:49 
 15655  24/08/2026 19:44:40  31.7  31.9  30.0  32.7  65.7  230.7  0.04  4.5  -79  19:44 
 15654  24/08/2026 19:39:57  31.8  31.9  29.9  32.6  65.6  230.9  0.04  4.5  -80  19:39 
 15653  24/08/2026 19:35:14  31.8  31.9  30.0  32.8  65.6  230.8  0.04  4.5  -80  19:35 
 15652  24/08/2026 19:30:28  31.8  31.9  30.2  32.9  65.5  230.8  0.04  4.6  -80  19:30 
 15651  24/08/2026 19:25:45  31.8  32.0  30.1  33.1  65.2  230.2  0.04  4.6  -80  19:25 
 15650  24/08/2026 19:21:01  31.9  32.1  30.2  33.0  65.1  230.3  0.04  4.5  -79  19:21 
 15649  24/08/2026 19:16:17  32.0  32.1  30.0  33.0  64.9  229.9  0.04  4.6  -79  19:16 
 15648  24/08/2026 19:11:35  32.0  32.1  30.2  33.1  64.9  232.4  0.04  4.5  -80  19:11 
 15647  24/08/2026 19:06:50  32.1  32.1  30.2  33.2  64.8  226.7  0.04  4.5  -79  19:06 

Data every 5 minute.


ใช้เวลาประมวลผล 0.02611 วินาที